GW3294 Weather Reports


Display with metric or nautical units.
time (UTC)temp
F
wind
direction
speed
MPH
gust
MPH
rain 1hr
in
rain 24hr
in
rain mn
in
humidity
%
barometer
mb
20260510120613 54 50 0.0 2.0 0.00 0.05 0.05 99 1019.9
20260510120108 54 95 0.0 2.0 0.00 0.05 0.05 99 1019.9
20260510115605 54 104 1.0 2.0 0.00 0.05 0.05 99 1019.9
20260510115103 54 126 0.0 2.0 0.00 0.05 0.05 99 1019.4
20260510114558 54 129 1.0 2.0 0.00 0.05 0.05 99 1019.6
20260510114054 54 131 0.0 2.0 0.00 0.05 0.05 99 1019.3
20260510113549 54 122 1.0 3.0 0.00 0.05 0.05 99 1018.9
20260510113047 54 113 0.0 3.0 0.00 0.05 0.05 99 1018.7
20260510112544 54 132 3.0 3.0 0.00 0.05 0.05 99 1018.6
20260510112040 55 83 2.0 2.0 0.00 0.05 0.05 99 1018.7
20260510111537 55 130 0.0 3.0 0.00 0.05 0.05 99 1018.6
20260510111033 55 117 0.0 2.0 0.00 0.05 0.05 99 1018.4
20260510110529 55 116 2.0 2.0 0.00 0.05 0.05 99 1018.4
20260510110026 55 113 1.0 2.0 0.00 0.05 0.05 99 1018.1
20260510105520 55 138 2.0 3.0 0.00 0.05 0.05 99 1018.2
20260510105016 55 118 1.0 2.0 0.00 0.05 0.05 99 1018.1
20260510104513 55 109 1.0 2.0 0.00 0.05 0.05 99 1018.0
20260510104009 55 111 1.0 2.0 0.00 0.05 0.05 99 1018.0
20260510103507 55 103 0.0 2.0 0.00 0.05 0.05 99 1017.7
20260510103002 55 89 0.0 2.0 0.00 0.05 0.05 99 1018.0
20260510102458 55 124 0.0 0.0 0.00 0.05 0.05 99 1017.8
20260510101954 55 60 0.0 1.0 0.00 0.05 0.05 99 1017.7
20260510101452 55 102 0.0 2.0 0.00 0.05 0.05 98 1017.6
20260510100950 55 115 0.0 1.0 0.00 0.05 0.05 98 1017.5
20260510100446 55 122 1.0 2.0 0.00 0.05 0.05 98 1017.5
20260510095943 55 99 0.0 2.0 0.00 0.05 0.05 98 1017.4
20260510095439 56 89 0.0 1.0 0.00 0.05 0.05 98 1017.5
20260510094938 56 95 0.0 2.0 0.00 0.05 0.05 98 1017.3
20260510094433 56 89 0.0 1.0 0.00 0.05 0.05 98 1017.4
20260510093929 56 77 0.0 2.0 0.00 0.05 0.05 98 1017.3
20260510093424 56 129 0.0 1.0 0.00 0.05 0.05 98 1017.6
20260510092921 56 96 0.0 1.0 0.00 0.05 0.05 98 1017.5
20260510092418 56 129 0.0 0.0 0.00 0.05 0.05 98 1017.4
20260510091913 56 129 0.0 1.0 0.00 0.05 0.05 98 1017.5
20260510091410 56 113 0.0 1.0 0.00 0.05 0.05 98 1017.3
20260510090907 57 130 0.0 0.0 0.00 0.05 0.05 98 1017.3
20260510090403 57 135 0.0 2.0 0.00 0.05 0.05 98 1016.6
20260510085859 57 142 0.0 1.0 0.00 0.05 0.05 98 1016.8
20260510085353 57 44 0.0 1.0 0.00 0.05 0.05 98 1016.8
20260510084844 57 142 0.0 1.0 0.00 0.05 0.05 98 1016.7
20260510084342 57 160 0.0 0.0 0.00 0.05 0.05 98 1016.5
20260510083838 57 160 0.0 1.0 0.00 0.05 0.05 98 1016.4
20260510083334 57 49 0.0 0.0 0.00 0.05 0.05 98 1016.5
20260510082830 57 49 0.0 0.0 0.00 0.05 0.05 98 1016.3
20260510082327 57 49 0.0 1.0 0.00 0.05 0.05 98 1016.4
20260510081826 58 119 0.0 1.0 0.00 0.05 0.05 98 1016.3
20260510081317 58 76 0.0 0.0 0.00 0.05 0.05 98 1016.1
20260510080813 58 76 0.0 0.0 0.00 0.05 0.05 98 1015.9
20260510080307 58 89 0.0 1.0 0.00 0.05 0.05 98 1015.8
20260510075805 58 79 0.0 1.0 0.00 0.05 0.05 99 1015.9
20260510075305 58 74 1.0 2.0 0.00 0.05 0.05 99 1015.6
20260510074759 58 135 0.0 0.0 0.00 0.05 0.05 99 1015.9
20260510074256 58 44 0.0 0.0 0.00 0.05 0.05 99 1015.8
20260510073752 58 44 0.0 1.0 0.00 0.05 0.05 99 1015.9
20260510073248 58 37 0.0 1.0 0.00 0.05 0.05 99 1015.6
20260510072744 58 309 0.0 0.0 0.00 0.05 0.05 99 1015.5
20260510072241 59 269 0.0 1.0 0.00 0.05 0.05 99 1015.6
20260510071737 59 329 0.0 1.0 0.00 0.05 0.05 99 1015.2
20260510071234 59 129 0.0 0.0 0.00 0.05 0.05 99 1015.1
20260510070733 59 129 0.0 2.0 0.00 0.05 0.05 99 1015.1
20260510070229 59 89 0.0 0.0 0.00 0.05 0.05 99 1015.2
20260510065724 59 130 0.0 2.0 0.00 0.05 0.05 99 1014.9
20260510065221 59 129 0.0 1.0 0.00 0.05 0.05 99 1015.4
20260510064717 60 246 0.0 1.0 0.00 0.05 0.05 99 1015.2
20260510064215 60 129 0.0 1.0 0.00 0.05 0.05 99 1015.5
20260510063711 60 89 0.0 1.0 0.00 0.05 0.05 99 1015.4
20260510063207 60 256 0.0 0.0 0.00 0.05 0.05 99 1015.4
20260510062704 60 141 0.0 0.0 0.00 0.05 0.05 99 1015.6
20260510062201 60 23 0.0 2.0 0.00 0.05 0.05 99 1015.2
20260510061655 60 142 0.0 1.0 0.00 0.05 0.05 99 1015.1
20260510061153 60 113 1.0 2.0 0.00 0.05 0.05 99 1015.4
20260510060649 60 130 0.0 2.0 0.02 0.05 0.05 99 1015.1
20260510060146 60 252 0.0 2.0 0.12 0.05 0.05 99 1014.6
20260510055642 60 284 1.0 2.0 0.07 0.04 0.04 98 1014.2
20260510055140 60 141 2.0 3.0 0.07 0.03 0.03 98 1014.2
20260510054636 60 65 1.0 2.0 0.09 0.03 0.03 98 1014.1
20260510054132 60 50 2.0 3.0 0.02 0.02 0.02 98 1014.3
20260510053631 60 103 0.0 1.0 0.02 0.01 0.01 98 1014.8
20260510053128 60 235 0.0 0.0 0.02 0.01 0.01 98 1014.7
20260510052624 60 291 2.0 2.0 0.00 0.01 0.01 98 1014.6
20260510052120 60 68 0.0 3.0 0.02 0.01 0.01 97 1014.4
20260510051615 60 224 0.0 2.0 0.05 0.01 0.01 97 1014.5
20260510051112 60 126 1.0 2.0 0.02 0.00 0.00 97 1014.9
20260510050610 60 111 3.0 3.0 0.02 0.00 0.00 97 1014.6
20260510050107 60 290 0.0 1.0 0.02 0.00 0.00 97 1015.0
20260510045604 60 81 0.0 3.0 0.00 0.03 0.03 96 1015.2
20260510045100 60 108 1.0 3.0 0.05 0.03 0.03 96 1015.2
20260510044556 61 147 0.0 4.0 0.02 0.03 0.03 96 1015.1
20260510044054 61 150 0.0 3.0 0.00 0.02 0.02 95 1015.4
20260510043549 61 136 2.0 4.0 0.02 0.02 0.02 95 1015.2
20260510043045 61 165 0.0 4.0 0.02 0.02 0.02 95 1014.8
20260510042538 61 124 3.0 5.0 0.00 0.02 0.02 95 1014.7
20260510042033 61 151 5.0 5.0 0.00 0.02 0.02 95 1014.6
20260510041531 61 261 0.0 4.0 0.00 0.02 0.02 95 1014.3
20260510041029 61 105 2.0 5.0 0.02 0.02 0.02 94 1014.2
20260510040525 61 114 3.0 6.0 0.05 0.02 0.02 93 1014.7
20260510040021 62 134 5.0 9.0 0.05 0.02 0.02 92 1014.9
20260510035518 62 124 4.0 7.0 0.02 0.01 0.01 92 1014.9
20260510035017 62 27 2.0 7.0 0.00 0.01 0.01 90 1014.8
20260510034516 62 101 2.0 8.0 0.02 0.01 0.01 89 1014.8
20260510034012 63 172 3.0 9.0 0.05 0.01 0.01 88 1014.9
20260510033508 64 218 4.0 11.0 0.02 0.00 0.00 84 1014.4
20260510033007 66 130 8.0 11.0 0.00 0.00 0.00 77 1014.5
20260510032502 64 179 4.0 11.0 0.00 0.00 0.00 77 1014.3
20260510031957 63 267 3.0 3.0 0.00 0.00 0.00 81 1013.3
20260510031453 64 37 0.0 1.0 0.00 0.00 0.00 76 1012.7
20260510030949 64 155 1.0 2.0 0.00 0.00 0.00 75 1012.8
20260510030444 64 119 1.0 2.0 0.00 0.00 0.00 75 1012.8
20260510025942 65 126 0.0 2.0 0.00 0.00 0.00 73 1012.6
20260510025439 65 132 0.0 1.0 0.00 0.00 0.00 72 1012.5
20260510024937 65 98 0.0 2.0 0.00 0.00 0.00 72 1012.4
20260510024433 65 95 1.0 2.0 0.00 0.00 0.00 73 1012.2
20260510023929 65 106 0.0 2.0 0.00 0.00 0.00 71 1012.1
20260510023425 66 121 1.0 2.0 0.00 0.00 0.00 71 1012.2
20260510022923 66 119 0.0 2.0 0.00 0.00 0.00 72 1012.4
20260510022421 66 110 1.0 2.0 0.00 0.00 0.00 70 1012.4
20260510021920 66 126 0.0 2.0 0.00 0.00 0.00 69 1012.0
20260510021419 66 107 0.0 2.0 0.00 0.00 0.00 68 1012.2
20260510020915 66 78 0.0 2.0 0.00 0.00 0.00 69 1011.9
20260510020410 66 95 0.0 2.0 0.00 0.00 0.00 70 1011.9
20260510015906 66 103 2.0 2.0 0.00 0.00 0.00 69 1011.6
20260510015402 67 116 0.0 2.0 0.00 0.00 0.00 68 1011.4
20260510014857 67 97 1.0 2.0 0.00 0.00 0.00 68 1011.5
20260510014355 68 94 1.0 2.0 0.00 0.00 0.00 66 1011.4
20260510013851 68 104 1.0 2.0 0.00 0.00 0.00 65 1011.5
20260510013347 69 89 0.0 2.0 0.00 0.00 0.00 67 1011.5
20260510012847 70 95 1.0 2.0 0.00 0.00 0.00 65 1011.3
20260510012342 70 89 0.0 2.0 0.00 0.00 0.00 62 1011.4
20260510011837 71 116 0.0 2.0 0.00 0.00 0.00 61 1011.3
20260510011332 71 107 0.0 2.0 0.00 0.00 0.00 61 1011.2
20260510010829 71 97 1.0 2.0 0.00 0.00 0.00 60 1011.2
20260510010326 72 76 1.0 2.0 0.00 0.00 0.00 59 1011.3
20260510005823 73 100 0.0 2.0 0.00 0.00 0.00 56 1011.1
20260510005319 73 141 0.0 2.0 0.00 0.00 0.00 55 1011.1
20260510004817 74 95 0.0 2.0 0.00 0.00 0.00 54 1010.9
20260510004314 74 124 0.0 2.0 0.00 0.00 0.00 53 1010.9
20260510003812 74 144 0.0 2.0 0.00 0.00 0.00 53 1010.8
20260510003308 75 103 0.0 1.0 0.00 0.00 0.00 53 1010.8
20260510002807 75 154 0.0 1.0 0.00 0.00 0.00 52 1010.9
20260510002307 76 106 0.0 1.0 0.00 0.00 0.00 50 1010.9
20260510001801 77 147 0.0 1.0 0.00 0.00 0.00 50 1010.9
20260510001300 77 122 0.0 2.0 0.00 0.00 0.00 48 1010.7
20260510000754 77 62 0.0 1.0 0.00 0.00 0.00 46 1010.9
20260510000253 78 217 0.0 2.0 0.00 0.00 0.00 46 1010.6
20260509235750 79 142 0.0 1.0 0.00 0.00 0.00 45 1010.6
20260509235246 79 250 0.0 3.0 0.00 0.00 0.00 39 1010.7
20260509234742 79 129 0.0 1.0 0.00 0.00 0.00 41 1010.8
20260509234239 80 228 2.0 3.0 0.00 0.00 0.00 45 1010.7
20260509233737 80 269 0.0 1.0 0.00 0.00 0.00 41 1010.7
20260509233234 80 230 0.0 2.0 0.00 0.00 0.00 42 1010.4
20260509232730 80 357 1.0 3.0 0.00 0.00 0.00 40 1010.6
20260509232227 79 274 1.0 5.0 0.00 0.00 0.00 38 1010.6
20260509231724 80 281 1.0 4.0 0.00 0.00 0.00 42 1010.5
20260509231221 81 264 2.0 3.0 0.00 0.00 0.00 37 1010.4
20260509230719 81 264 0.0 6.0 0.00 0.00 0.00 37 1010.7
20260509230215 81 333 0.0 3.0 0.00 0.00 0.00 41 1010.4
20260509225711 81 248 0.0 3.0 0.00 0.00 0.00 41 1010.6
20260509225207 81 221 3.0 5.0 0.00 0.00 0.00 38 1010.6
20260509224702 81 251 0.0 5.0 0.00 0.00 0.00 38 1010.6
20260509224200 82 163 0.0 3.0 0.00 0.00 0.00 42 1010.2
20260509223656 82 237 2.0 3.0 0.00 0.00 0.00 37 1010.4
20260509223153 82 190 2.0 7.0 0.00 0.00 0.00 37 1010.5
20260509222650 85 229 2.0 7.0 0.00 0.00 0.00 36 1010.4
20260509222146 84 322 0.0 5.0 0.00 0.00 0.00 38 1010.5
20260509221642 84 289 1.0 7.0 0.00 0.00 0.00 38 1010.6
20260509221138 84 256 2.0 8.0 0.00 0.00 0.00 35 1010.5
20260509220634 87 245 1.0 3.0 0.00 0.00 0.00 39 1010.5
20260509220130 88 255 2.0 5.0 0.00 0.00 0.00 36 1010.4
20260509215627 86 213 1.0 5.0 0.00 0.00 0.00 39 1010.8
20260509215123 86 177 2.0 5.0 0.00 0.00 0.00 39 1010.5
20260509214621 88 202 0.0 3.0 0.00 0.00 0.00 38 1010.5
20260509214117 87 142 1.0 6.0 0.00 0.00 0.00 35 1010.6
20260509213613 85 240 3.0 5.0 0.00 0.00 0.00 41 1010.5
20260509213110 85 195 2.0 5.0 0.00 0.00 0.00 37 1010.7
20260509212607 84 277 3.0 4.0 0.00 0.00 0.00 37 1010.4
20260509212104 87 323 2.0 5.0 0.00 0.00 0.00 37 1010.6
20260509211600 89 125 2.0 3.0 0.00 0.00 0.00 34 1010.5
20260509211057 90 244 2.0 3.0 0.00 0.00 0.00 37 1010.6
20260509210553 87 265 2.0 4.0 0.00 0.00 0.00 39 1010.7
20260509210050 85 207 1.0 5.0 0.00 0.00 0.00 41 1010.9
20260509205544 89 165 1.0 5.0 0.00 0.00 0.00 36 1010.9
20260509205039 90 258 2.0 4.0 0.00 0.00 0.00 37 1010.8
20260509204536 89 244 1.0 3.0 0.00 0.00 0.00 40 1010.8
20260509204032 88 299 2.0 3.0 0.00 0.00 0.00 36 1011.0
20260509203528 87 242 0.0 5.0 0.00 0.00 0.00 40 1011.0
20260509203027 87 257 2.0 3.0 0.00 0.00 0.00 38 1011.0
20260509202526 87 272 4.0 4.0 0.00 0.00 0.00 39 1011.0
20260509202022 87 224 1.0 5.0 0.00 0.00 0.00 40 1011.3
20260509201517 84 220 1.0 7.0 0.00 0.00 0.00 39 1011.0
20260509201015 86 216 2.0 5.0 0.00 0.00 0.00 35 1011.0
20260509200510 86 210 2.0 7.0 0.00 0.00 0.00 38 1011.2
20260509200006 85 252 3.0 9.0 0.00 0.00 0.00 38 1011.1
20260509195501 86 108 7.0 7.0 0.00 0.00 0.00 41 1011.2
20260509194956 84 107 3.0 6.0 0.00 0.00 0.00 39 1011.0
20260509194452 86 208 3.0 6.0 0.00 0.00 0.00 40 1011.1
20260509193949 86 83 1.0 3.0 0.00 0.00 0.00 39 1011.3
20260509193449 84 280 3.0 4.0 0.00 0.00 0.00 39 1011.2
20260509192945 84 274 2.0 3.0 0.00 0.00 0.00 42 1011.4
20260509192442 81 292 3.0 6.0 0.00 0.00 0.00 40 1011.3
20260509191937 82 284 3.0 5.0 0.00 0.00 0.00 41 1011.2
20260509191432 82 41 4.0 7.0 0.00 0.00 0.00 41 1011.2
20260509190928 83 42 5.0 7.0 0.00 0.00 0.00 41 1011.5
20260509190426 83 11 2.0 7.0 0.00 0.00 0.00 40 1011.4
20260509185924 84 186 3.0 4.0 0.00 0.00 0.00 42 1011.7
20260509185421 83 231 1.0 4.0 0.00 0.00 0.00 49 1011.6
20260509184917 83 357 1.0 6.0 0.00 0.00 0.00 45 1011.5
20260509184415 82 216 2.0 6.0 0.00 0.00 0.00 44 1011.4
20260509183911 83 201 3.0 8.0 0.00 0.00 0.00 41 1011.4
20260509183406 82 279 3.0 5.0 0.00 0.00 0.00 45 1011.4
20260509182902 82 287 0.0 6.0 0.00 0.00 0.00 43 1011.6
20260509182359 81 13 3.0 7.0 0.00 0.00 0.00 48 1011.7
20260509181856 82 144 2.0 7.0 0.00 0.00 0.00 43 1011.5
20260509181354 82 178 1.0 9.0 0.00 0.00 0.00 49 1011.6
20260509180851 82 357 2.0 4.0 0.00 0.00 0.00 45 1011.5
20260509180346 81 264 2.0 6.0 0.00 0.00 0.00 47 1011.4
20260509175844 80 296 3.0 9.0 0.00 0.00 0.00 46 1011.5
20260509175340 80 192 3.0 8.0 0.00 0.00 0.00 48 1011.7
20260509174836 81 229 1.0 3.0 0.00 0.00 0.00 51 1011.7
20260509174332 79 240 1.0 7.0 0.00 0.00 0.00 50 1011.5
20260509173828 78 140 1.0 8.0 0.00 0.00 0.00 49 1011.6
20260509173323 78 135 0.0 5.0 0.00 0.00 0.00 53 1011.7
20260509172820 77 24 2.0 6.0 0.00 0.00 0.00 53 1012.0
20260509172317 76 246 1.0 5.0 0.00 0.00 0.00 56 1011.8
20260509171813 76 314 3.0 7.0 0.00 0.00 0.00 55 1012.1
20260509171308 75 222 0.0 7.0 0.00 0.00 0.00 57 1012.1
20260509170805 75 289 1.0 5.0 0.00 0.00 0.00 55 1012.1
20260509170301 77 292 2.0 4.0 0.00 0.00 0.00 56 1012.2
20260509165800 76 288 1.0 3.0 0.00 0.00 0.00 60 1012.2
20260509165255 76 236 2.0 8.0 0.00 0.00 0.00 62 1012.2
20260509164751 75 297 1.0 5.0 0.00 0.00 0.00 61 1012.2
20260509164248 73 243 2.0 6.0 0.00 0.00 0.00 60 1012.3
20260509163745 74 126 4.0 7.0 0.00 0.00 0.00 59 1012.4
20260509163241 74 292 0.0 10.0 0.00 0.00 0.00 61 1012.4
20260509162739 73 256 2.0 8.0 0.00 0.00 0.00 66 1012.5
20260509162234 71 322 0.0 4.0 0.00 0.00 0.00 66 1012.3
20260509161730 73 273 3.0 7.0 0.00 0.00 0.00 70 1012.6
20260509161226 71 113 2.0 5.0 0.00 0.00 0.00 72 1012.4
20260509160721 70 92 0.0 3.0 0.00 0.00 0.00 73 1012.5
20260509160218 70 323 2.0 4.0 0.00 0.00 0.00 70 1012.3
20260509155713 70 127 3.0 9.0 0.00 0.00 0.00 70 1012.3
20260509155210 70 140 0.0 5.0 0.00 0.00 0.00 69 1012.3
20260509154706 68 292 6.0 9.0 0.00 0.00 0.00 72 1012.3
20260509154203 68 311 2.0 4.0 0.00 0.00 0.00 78 1012.5
20260509153700 70 188 1.0 3.0 0.00 0.00 0.00 73 1012.3
20260509153156 70 205 2.0 3.0 0.00 0.00 0.00 72 1012.1
20260509152652 69 227 0.0 4.0 0.00 0.00 0.00 77 1012.3
20260509152149 67 172 2.0 10.0 0.00 0.00 0.00 77 1012.2
20260509151646 66 237 1.0 3.0 0.00 0.00 0.00 81 1012.3
20260509151143 65 203 1.0 5.0 0.00 0.00 0.00 80 1012.4
20260509150641 65 235 2.0 5.0 0.00 0.00 0.00 81 1012.0
20260509150139 65 192 2.0 5.0 0.00 0.00 0.00 82 1012.1
20260509145635 64 155 5.0 8.0 0.00 0.00 0.00 84 1012.1
20260509145130 62 198 0.0 5.0 0.00 0.00 0.00 86 1012.3
20260509144627 62 279 1.0 5.0 0.00 0.00 0.00 87 1012.1
20260509144124 62 249 3.0 7.0 0.00 0.00 0.00 87 1012.1
20260509143621 61 221 4.0 6.0 0.00 0.00 0.00 88 1011.9
20260509143119 61 219 2.0 6.0 0.00 0.00 0.00 89 1012.3
20260509142614 61 144 1.0 6.0 0.00 0.00 0.00 89 1012.1
20260509142110 60 141 1.0 5.0 0.00 0.00 0.00 90 1012.1
20260509141606 60 238 2.0 4.0 0.00 0.00 0.00 91 1012.3
20260509141103 60 176 0.0 5.0 0.00 0.00 0.00 93 1012.2
20260509140600 59 112 0.0 4.0 0.00 0.00 0.00 93 1012.2
20260509140058 60 150 0.0 4.0 0.00 0.00 0.00 94 1011.9
20260509135555 59 179 2.0 5.0 0.00 0.00 0.00 95 1012.0
20260509135053 59 196 3.0 3.0 0.00 0.00 0.00 96 1011.7
20260509134549 58 218 0.0 4.0 0.00 0.00 0.00 96 1011.8
20260509134047 58 281 2.0 3.0 0.00 0.00 0.00 96 1012.0
20260509133544 58 256 0.0 2.0 0.00 0.00 0.00 97 1011.9
20260509133041 58 110 1.0 3.0 0.00 0.00 0.00 97 1011.9
20260509132534 57 57 0.0 2.0 0.00 0.00 0.00 97 1011.6
20260509132032 57 23 0.0 3.0 0.00 0.00 0.00 97 1011.8
20260509131528 57 0 1.0 2.0 0.00 0.00 0.00 98 1012.0
20260509131025 57 229 0.0 2.0 0.00 0.00 0.00 98 1011.7
20260509130520 57 144 1.0 3.0 0.00 0.00 0.00 99 1011.8
20260509130017 57 140 1.0 4.0 0.00 0.00 0.00 99 1011.9
20260509125514 57 99 2.0 4.0 0.00 0.00 0.00 99 1011.9
20260509125010 57 212 0.0 1.0 0.00 0.00 0.00 99 1011.9
20260509124507 57 177 1.0 3.0 0.00 0.00 0.00 99 1011.9
20260509124004 56 219 2.0 3.0 0.00 0.00 0.00 99 1011.8
20260509123502 56 248 0.0 5.0 0.00 0.00 0.00 99 1011.9
20260509122957 56 279 2.0 3.0 0.00 0.00 0.00 99 1012.1
20260509122454 56 141 1.0 2.0 0.00 0.00 0.00 99 1011.9
20260509121951 56 176 2.0 3.0 0.00 0.00 0.00 99 1012.1
20260509121448 56 209 0.0 6.0 0.00 0.00 0.00 99 1011.9
20260509120946 56 182 0.0 2.0 0.00 0.00 0.00 99 1011.7